Find CP5

NORAD ID: 38763 Int'l Des: 2012-048 Owner: CALP Country: US operational
LEO

Current View

Loading 3D Globe...

About CP5

Description loading...

Upcoming Passes

Passes for default location (London). Set your location on the main map for personalized predictions.

Altitude History

Loading altitude history...

Two-Line Element Set

1 38763U 12048F 26150.58762304 .00016194 00000-0 55193-3 0 9998
2 38763 64.6446 210.7362 0081722 181.9746 178.1074 15.27344480114075
Epoch: May 30, 2026 • Age: 18 hours

Current Status

Altitude 491.1 km
Velocity 7.63 km/s
Sub-Earth Point 64.48°N, 58.39°W
Launch Date Sep 13, 2012
Age 13.7 years
Type other

Technical Details

Classification Payload
Mass 1.00 kg
Dry Mass 1.00 kg
Total Mass 1.00 kg
Length 0.10 m
Diameter 0.10 m
Span 0.20 m
Shape Box+Ant
Manufacturer CALP
Bus Type Cubesat 1U
Phase Status In Orbit
Owner/State CALP/US

Most Searched